[[{"header":{"parameterUnit":"m.s-1","parameterCategory":2,"la1":30.2991,"la2":30.254,"lo1":-89.0895,"lo2":-89.0444,"dy":0.0017,"dx":0.0017,"nx":28,"ny":28,"refTime":"2023-03-29T21:00:00:Z","depth":"0","parameterNumber":2,"parameterNumberName":"U-component_of_CURRENTS"},"data":[0,0,0,0,0,0,0,0,0,0,0,0,0,0,0,0,0,0,0,0,0,0,0,0,0,0,0,0,0,0,0,0,0,0,0,0,0,0,0,0,0,0,0,0,0,0,0,0,0,0,0,0,0,0,0,0,0,0,0.3114,0.3114,0,0.3116,0.3116,0.3116,0.3091,0.309,0.309,0.309,0.3125,0.3127,0.3128,0,0,0,0,0,0,0,0,0,0,0,0,0,0.3118,0.3118,0.3114,0.3114,0.3115,0.3116,0.3116,0.3116,0.3091,0.309,0.309,0.3089,0.3125,0.3126,0.3128,0,0,0,0,0,0,0,0,0,0,0,0,0,0.3115,0.3118,0.3114,0.3105,0.3104,0.3116,0.3116,0.3116,0.3091,0.309,0.309,0.3089,0.3124,0.3126,0.3128,0.3153,0,0,0.3134,0.3135,0,0,0,0,0,0,0,0,0.3115,0.3114,0.3106,0.3105,0.3105,0.3105,0.3131,0.3131,0.3091,0.3093,0.309,0.3089,0.3124,0.3126,0.3123,0.3155,0.3156,0.3135,0.3136,0.3137,0.3137,0,0,0,0,0,0,0,0.3115,0.3114,0.3112,0.3106,0.3106,0.3111,0.3109,0.313,0.311,0.3093,0.3092,0.3097,0.3124,0.3121,0.3124,0.3157,0.3134,0.3136,0.3138,0.3138,0.3256,0.3257,0,0,0,0,0,0,0.312,0.3115,0.3112,0.3112,0.3112,0.3111,0.3109,0.3103,0.3109,0.311,0.3097,0.3096,0.3118,0.3122,0.3125,0.3209,0.3137,0.3138,0.314,0.3254,0.3256,0.3258,0,0,0,0,0,0,0.312,0.3119,0.3112,0.3117,0.3116,0.3112,0.3106,0.3104,0.3099,0.3113,0.3114,0.3095,0.3118,0.3122,0.3147,0.3208,0.3139,0.3141,0.3252,0.3254,0.3257,0.3341,0,0,0,0,0,0,0.312,0.3119,0.3127,0.3116,0.3116,0.3132,0.3106,0.3104,0.3105,0.3103,0.3112,0.3114,0.3118,0.3144,0.3149,0.3209,0.3143,0.3249,0.3253,0.3256,0.3336,0.3347,0.3356,0,0,0,0,0,0.312,0.3139,0.3127,0.3128,0.3124,0.3133,0.3134,0.3127,0.3106,0.3117,0.3115,0.3114,0.3171,0.3146,0.3152,0.3215,0.3247,0.3252,0.3256,0.3332,0.3345,0.3356,0,0,0,0,0,0,0.3146,0.3138,0.3125,0.314,0.314,0.313,0.315,0.3129,0.3133,0.3133,0.3127,0.313,0.3191,0.3179,0.3151,0.3259,0.3215,0.322,0.3271,0.3283,0.3292,0.3293,0.3144,0,0,0,0,0,0.3155,0.3168,0.3154,0.317,0.3173,0.3157,0.3161,0.315,0.315,0.3149,0.3153,0.3169,0.3215,0.3224,0.326,0.3298,0.3308,0.3345,0.3354,0.3363,0.3367,0.3432,0.3448,0.3272,0.3272,0.3272,0,0,0.3166,0.317,0.3173,0.3178,0.3178,0.3192,0.3158,0.3171,0.3186,0.3156,0.3187,0.3211,0.3235,0.3297,0.3322,0.3289,0.3421,0.3368,0.3375,0.3375,0.3438,0.3455,0.347,0.3275,0.3275,0.3274,0,0,0.3197,0.3201,0.3216,0.3224,0.3232,0.323,0.3232,0.3223,0.3227,0.3253,0.3256,0.3298,0.3339,0.3374,0.3396,0.3475,0.3483,0.3497,0.3535,0.3598,0.3613,0.3626,0.3671,0.3687,0.3486,0.3486,0.3486,0,0.3212,0.3218,0.3225,0.3245,0.3254,0.3247,0.3256,0.3275,0.3275,0.3283,0.3278,0.3359,0.3383,0.346,0.35,0.3501,0.3528,0.3489,0.3612,0.3625,0.3637,0.3679,0.3697,0.3491,0.349,0.349,0.3489,0,0.3239,0.3252,0.327,0.3289,0.3309,0.3321,0.334,0.3358,0.3362,0.337,0.344,0.3474,0.351,0.3549,0.3554,0.3659,0.3649,0.363,0.3582,0.366,0.3699,0.3716,0.3497,0.3496,0.3494,0.3493,0,0,0.3224,0.3274,0.3273,0.3284,0.3324,0.3333,0.3388,0.3413,0.3427,0.3475,0.3499,0.361,0.3613,0.3639,0.3659,0.372,0.3845,0.3717,0.3718,0.3761,0.3984,0.3807,0.3808,0.3853,0.3857,0.3859,0.398,0,0.3227,0.3265,0.329,0.3324,0.3339,0.3367,0.3412,0.3448,0.3475,0.3506,0.357,0.3617,0.3653,0.3671,0.375,0.3807,0.3891,0.3813,0.3901,0.3903,0.3737,0.3822,0.3578,0.365,0.3996,0.3998,0.4,0,0.321,0.3247,0.3275,0.3325,0.3332,0.3357,0.34,0.3437,0.3503,0.3528,0.3592,0.3626,0.3729,0.3741,0.391,0.3859,0.3946,0.3998,0.4003,0.3816,0.3756,0.3626,0.3666,0.3539,0.4025,0.4023,0.4021,0,0.3163,0.3218,0.3239,0.3257,0.3327,0.334,0.3371,0.3431,0.3463,0.3528,0.3558,0.3665,0.3714,0.3842,0.3947,0.3945,0.4114,0.4112,0.4048,0.4036,0.383,0.3793,0.375,0.4269,0.4269,0.4269,0.4268,0,0.3136,0.3139,0.3214,0.3226,0.3253,0.3306,0.3332,0.3375,0.3438,0.3482,0.356,0.3613,0.375,0.3846,0.3957,0.4026,0.4128,0.4071,0.406,0.385,0.3814,0.3692,0.3665,0.4273,0.4272,0.4271,0.427,0,0.3059,0.3106,0.3135,0.3212,0.3229,0.3243,0.3307,0.3333,0.3397,0.3454,0.348,0.3593,0.3688,0.3802,0.3977,0.4006,0.3963,0.4118,0.3841,0.3793,0.355,0.3537,0.3416,0.3329,0.4051,0.4047,0.4044,0,0.3013,0.3029,0.3114,0.3134,0.3159,0.3194,0.3227,0.3303,0.334,0.3444,0.3476,0.3561,0.3611,0.3748,0.3775,0.3873,0.3843,0.3724,0.3669,0.3502,0.3485,0.341,0.3342,0.3457,0.3449,0.3443,0.3438,0,0.2957,0.2993,0.3039,0.308,0.3112,0.3138,0.3185,0.3211,0.3306,0.3343,0.34,0.3432,0.3507,0.3429,0.349,0.3544,0.3459,0.3595,0.3512,0.3081,0.2911,0.2829,0.3415,0.3383,0.3388,0.3392,0.3395,0.3397,0.2917,0.2942,0.3012,0.3017,0.3059,0.3057,0.3018,0.3085,0.3103,0.3099,0.3239,0.32,0.3149,0.3152,0.3178,0.2968,0.3099,0.2885,0.2912,0.2874,0.2676,0.3113,0.2995,0.2998,0.3001,0.3003,0.3005,0,0.2874,0.291,0.2936,0.295,0.2922,0.2959,0.2969,0.2892,0.2848,0.2913,0.2906,0.2771,0.2632,0.2604,0.2411,0.231,0.2277,0.2248,0.2114,0.2111,0.2567,0.2421,0.2059,0.2059,0.2059,0.2059,0.206,0.206,0.2866,0.2881,0.2878,0.2801,0.2778,0.2671,0.2623,0.2544,0.2539,0.2396,0.2304,0.23,0.2241,0.2045,0.184,0.1803,0.1718,0.158,0.1701,0.2024,0.2087,0.2146,0.2001,0.1557,0.1556,0.1105,0.1102,0.1099]},{"header":{"parameterUnit":"m.s-1","parameterCategory":2,"la1":30.2991,"la2":30.254,"lo1":-89.0895,"lo2":-89.0444,"dy":0.0017,"dx":0.0017,"nx":28,"ny":28,"refTime":"2023-03-29T21:00:00:Z","depth":"0","parameterNumber":3,"parameterNumberName":"V-component_of_CURRENTS"},"data":[0,0,0,0,0,0,0,0,0,0,0,0,0,0,0,0,0,0,0,0,0,0,0,0,0,0,0,0,0,0,0,0,0,0,0,0,0,0,0,0,0,0,0,0,0,0,0,0,0,0,0,0,0,0,0,0,0,0,-0.0164,-0.0163,0,-0.0203,-0.0205,-0.0206,-0.0321,-0.0323,-0.0324,-0.0326,-0.0525,-0.0529,-0.0533,0,0,0,0,0,0,0,0,0,0,0,0,0,-0.0167,-0.0167,-0.0164,-0.0163,-0.0163,-0.0203,-0.0205,-0.0206,-0.0321,-0.0323,-0.0325,-0.0327,-0.0524,-0.0528,-0.0533,0,0,0,0,0,0,0,0,0,0,0,0,0,-0.0191,-0.0167,-0.0164,-0.0218,-0.0222,-0.0203,-0.0205,-0.0207,-0.032,-0.0323,-0.0325,-0.0327,-0.0522,-0.0528,-0.0534,-0.052,0,0,-0.0551,-0.0553,0,0,0,0,0,0,0,0,-0.019,-0.0192,-0.021,-0.0214,-0.0219,-0.0251,-0.0278,-0.0316,-0.032,-0.0293,-0.0326,-0.0329,-0.044,-0.0453,-0.0466,-0.0529,-0.0538,-0.0552,-0.0555,-0.0557,-0.0559,0,0,0,0,0,0,0,-0.0188,-0.0191,-0.0189,-0.0209,-0.0214,-0.0232,-0.024,-0.0286,-0.0363,-0.0296,-0.0302,-0.029,-0.0446,-0.046,-0.0472,-0.0541,-0.0551,-0.0556,-0.056,-0.0562,-0.0572,-0.0569,0,0,0,0,0,0,-0.0162,-0.0189,-0.0188,-0.0189,-0.0199,-0.023,-0.0239,-0.0246,-0.0359,-0.0375,-0.0288,-0.0295,-0.045,-0.0465,-0.048,-0.048,-0.0557,-0.0563,-0.0566,-0.0576,-0.0572,-0.0568,0,0,0,0,0,0,-0.0162,-0.0162,-0.0186,-0.0181,-0.0185,-0.0226,-0.0235,-0.0246,-0.0262,-0.035,-0.0371,-0.0292,-0.0452,-0.0472,-0.0508,-0.0488,-0.0565,-0.057,-0.0579,-0.0574,-0.057,-0.0474,0,0,0,0,0,0,-0.0162,-0.0162,-0.0167,-0.018,-0.0184,-0.0175,-0.0231,-0.0244,-0.0246,-0.0257,-0.036,-0.0381,-0.0456,-0.0499,-0.0514,-0.0498,-0.0575,-0.0583,-0.0577,-0.0571,-0.0481,-0.0467,-0.0454,0,0,0,0,0,-0.0163,-0.0163,-0.0167,-0.0167,-0.0187,-0.0173,-0.0178,-0.0222,-0.0243,-0.0247,-0.0303,-0.0378,-0.0472,-0.0501,-0.0519,-0.0505,-0.0586,-0.0579,-0.0572,-0.0487,-0.0469,-0.0454,0,0,0,0,0,0,-0.0173,-0.0173,-0.018,-0.0182,-0.0171,-0.0189,-0.0193,-0.0204,-0.0247,-0.0263,-0.0351,-0.0375,-0.0397,-0.0444,-0.0474,-0.048,-0.0535,-0.0531,-0.0464,-0.0448,-0.0435,-0.0426,-0.058,0,0,0,0,0,-0.0167,-0.017,-0.016,-0.016,-0.0152,-0.0163,-0.0163,-0.018,-0.0208,-0.0231,-0.029,-0.0341,-0.0376,-0.0408,-0.045,-0.0461,-0.0471,-0.0452,-0.0439,-0.0427,-0.0426,-0.0396,-0.0381,-0.0545,-0.0545,-0.0545,0,0,-0.0169,-0.0167,-0.0169,-0.0161,-0.0162,-0.015,-0.0174,-0.0163,-0.0162,-0.0244,-0.0273,-0.0302,-0.0363,-0.0378,-0.039,-0.0424,-0.0379,-0.0418,-0.0409,-0.0414,-0.0387,-0.0372,-0.0358,-0.054,-0.0541,-0.0542,0,0,-0.0157,-0.0168,-0.0158,-0.0148,-0.0128,-0.0134,-0.012,-0.0121,-0.0138,-0.0142,-0.0193,-0.0196,-0.0265,-0.0292,-0.0318,-0.0243,-0.0304,-0.0253,-0.0196,-0.0166,-0.0153,-0.0142,-0.0115,-0.0102,-0.0253,-0.0252,-0.0252,0,-0.016,-0.015,-0.015,-0.0133,-0.0124,-0.0121,-0.0102,-0.0108,-0.0121,-0.0115,-0.0145,-0.0167,-0.0222,-0.0217,-0.0197,-0.0218,-0.0212,-0.0264,-0.0151,-0.0141,-0.0131,-0.0106,-0.0093,-0.0247,-0.0248,-0.0248,-0.0249,0,-0.0131,-0.0128,-0.0118,-0.0105,-0.0093,-0.0076,-0.0067,-0.0059,-0.0064,-0.006,-0.004,-0.0077,-0.0089,-0.0092,-0.0139,-0.0085,-0.0104,-0.0136,-0.0201,-0.0109,-0.0087,-0.0076,-0.0239,-0.0241,-0.0243,-0.0244,0,0,-0.0132,-0.0106,-0.0103,-0.009,-0.0078,-0.0059,-0.0049,-0.0023,0.0006,0.0005,0.0052,0.0021,0.0033,0.0011,-0.0014,0.0007,0.0083,-0.0035,-0.0036,-0.0022,0.0153,0.0109,0.0116,0.0066,0.0068,0.007,0.0147,0,-0.0112,-0.0077,-0.0071,-0.0042,-0.0025,-0.0021,-0.0004,0.002,0.0037,0.0083,0.0091,0.0115,0.0063,0.0078,0.0097,0.0086,0.0115,0.0065,0.0074,0.0075,0.0011,0.0128,0.0125,0.019,0.0158,0.016,0.0161,0,-0.0088,-0.0068,-0.0034,-0.0003,0.0008,0.0026,0.0069,0.0089,0.0145,0.0165,0.0207,0.0215,0.0255,0.0206,0.0238,0.0208,0.0191,0.0181,0.0183,0.011,0.0051,0.0091,0.0211,0.0126,0.0178,0.0177,0.0175,0,-0.0079,-0.0045,-0.0017,-0.0009,0.0029,0.005,0.0072,0.0119,0.0166,0.0231,0.0288,0.0322,0.0367,0.0354,0.0322,0.0289,0.0363,0.0312,0.0262,0.0258,0.024,0.023,0.0262,0.0348,0.0347,0.0347,0.0347,0,-0.0066,-0.004,-0.0007,0.001,0.0066,0.0076,0.0149,0.0175,0.0251,0.0345,0.0342,0.0432,0.0408,0.0439,0.0385,0.0368,0.0413,0.0299,0.0285,0.0276,0.0269,0.0177,0.0126,0.035,0.0349,0.0349,0.0348,0,-0.0046,-0.0037,0.0008,0.0053,0.0073,0.0119,0.0204,0.0271,0.0315,0.0443,0.0474,0.0544,0.0581,0.054,0.0539,0.046,0.0388,0.0406,0.0394,0.0377,0.0222,0.0176,0.0191,0.0161,0.0377,0.0376,0.0376,0,-0.0025,-0.0003,0.0054,0.0102,0.013,0.0196,0.0259,0.0304,0.0386,0.0523,0.0605,0.0672,0.0754,0.0721,0.0594,0.0509,0.0412,0.0414,0.0339,0.0239,0.0179,0.0141,0.0112,0.0371,0.0371,0.037,0.037,0,0.0031,0.0047,0.009,0.0179,0.0245,0.0326,0.0413,0.048,0.0563,0.0671,0.0822,0.0895,0.0868,0.0798,0.0642,0.0556,0.0349,0.0401,0.0318,0.0202,0.0147,0.0101,0.0287,0.0367,0.0367,0.0367,0.0368,0.0368,0.0087,0.0132,0.0188,0.0277,0.0356,0.0454,0.052,0.0629,0.0758,0.092,0.0981,0.1119,0.0972,0.0772,0.0622,0.0326,0.0341,0.0233,0.0199,0.0178,0.0113,0.0281,0.0318,0.0318,0.0318,0.0318,0.0318,0,0.0167,0.0211,0.0295,0.0388,0.0484,0.0504,0.063,0.0707,0.0862,0.1036,0.1167,0.1206,0.1003,0.0756,0.0357,0.016,0.0092,0.0059,0.0017,0.0004,0.0184,0.0143,0.0117,0.0117,0.0117,0.0118,0.0118,0.0118,0.0215,0.0296,0.0328,0.0479,0.055,0.0649,0.0711,0.084,0.0972,0.1167,0.1281,0.1357,0.1172,0.0517,0.0072,-0.0021,-0.0138,-0.0164,-0.0215,-0.0101,-0.0088,-0.0075,-0.0125,-0.0206,-0.0207,-0.0376,-0.0378,-0.0379]}],[{"header":{"parameterUnit":"m.s-1","parameterCategory":2,"la1":30.2991,"la2":30.254,"lo1":-89.0895,"lo2":-89.0444,"dy":0.0017,"dx":0.0017,"nx":28,"ny":28,"refTime":"2023-03-29T21:00:00:Z","depth":"2","parameterNumber":2,"parameterNumberName":"U-component_of_CURRENTS"},"data":[0,0,0,0,0,0,0,0,0,0,0,0,0,0,0,0,0,0,0,0,0,0,0,0,0,0,0,0,0,0,0,0,0,0,0,0,0,0,0,0,0,0,0,0,0,0,0,0,0,0,0,0,0,0,0,0,0,0,0.2202,0.2202,0,0.2203,0.2202,0.2202,0.2236,0.2238,0.2239,0.2241,0.2393,0.2396,0.2399,0,0,0,0,0,0,0,0,0,0,0,0,0,0.2223,0.2222,0.2202,0.2202,0.2203,0.2203,0.2202,0.2202,0.2236,0.2238,0.224,0.2241,0.2392,0.2395,0.2399,0,0,0,0,0,0,0,0,0,0,0,0,0,0.2213,0.2222,0.2202,0.2224,0.2226,0.2203,0.2202,0.2202,0.2236,0.2238,0.224,0.2242,0.2391,0.2395,0.2399,0.2383,0,0,0.2412,0.2414,0,0,0,0,0,0,0,0,0.2213,0.2211,0.222,0.2223,0.2225,0.2226,0.2266,0.2272,0.2235,0.2227,0.2241,0.2243,0.2353,0.2361,0.2346,0.239,0.2397,0.2412,0.2415,0.2417,0.2418,0,0,0,0,0,0,0,0.2214,0.2212,0.2197,0.2221,0.2224,0.2232,0.2232,0.2266,0.2277,0.2227,0.2231,0.2239,0.2355,0.2342,0.2351,0.2399,0.2412,0.2416,0.2418,0.242,0.2634,0.2637,0,0,0,0,0,0,0.2222,0.2212,0.2197,0.2197,0.223,0.223,0.223,0.2219,0.2273,0.2284,0.2237,0.2241,0.2334,0.2346,0.2357,0.2498,0.2417,0.242,0.2423,0.2631,0.2635,0.2638,0,0,0,0,0,0,0.2222,0.222,0.2197,0.221,0.2209,0.2228,0.2215,0.2218,0.2232,0.228,0.2293,0.2252,0.2336,0.2351,0.2426,0.2498,0.2422,0.2426,0.2627,0.2632,0.2636,0.268,0,0,0,0,0,0,0.2223,0.2219,0.2216,0.221,0.2209,0.2201,0.2214,0.2217,0.2235,0.224,0.2297,0.2311,0.2339,0.242,0.243,0.2503,0.2429,0.2623,0.2629,0.2635,0.2675,0.2686,0.2695,0,0,0,0,0,0.2223,0.2219,0.2215,0.2215,0.2202,0.2202,0.2201,0.2219,0.2234,0.2238,0.2294,0.2311,0.2467,0.2424,0.2436,0.2512,0.262,0.2627,0.2634,0.267,0.2684,0.2695,0,0,0,0,0,0,0.2222,0.2222,0.2219,0.2212,0.2214,0.221,0.2225,0.2226,0.2263,0.2291,0.2327,0.2346,0.245,0.2468,0.242,0.2596,0.2556,0.2566,0.258,0.2593,0.2603,0.2656,0.2433,0,0,0,0,0,0.2218,0.2227,0.2215,0.2217,0.2219,0.222,0.2224,0.2237,0.2268,0.2285,0.2343,0.2415,0.2481,0.2524,0.2585,0.2656,0.2672,0.2723,0.2734,0.2742,0.2797,0.2869,0.289,0.2662,0.2661,0.2661,0,0,0.2211,0.2226,0.2222,0.2221,0.2227,0.2248,0.2228,0.225,0.2291,0.23,0.2402,0.2451,0.2508,0.2607,0.2657,0.2635,0.2803,0.2751,0.2757,0.2809,0.2879,0.2901,0.292,0.2666,0.2666,0.2665,0,0,0.223,0.2223,0.2237,0.2249,0.2275,0.2282,0.2293,0.2316,0.2346,0.2409,0.2462,0.2569,0.2632,0.2728,0.2766,0.2873,0.2856,0.288,0.2975,0.3043,0.3062,0.3079,0.3064,0.308,0.2884,0.2884,0.2884,0,0.225,0.2231,0.224,0.2274,0.2292,0.2305,0.2325,0.2359,0.2419,0.2463,0.246,0.2638,0.2707,0.2845,0.291,0.2904,0.2894,0.291,0.3055,0.3073,0.309,0.3071,0.3088,0.2887,0.2887,0.2887,0.2886,0,0.225,0.2263,0.228,0.2329,0.2359,0.2374,0.2424,0.2484,0.2521,0.256,0.2695,0.2781,0.2896,0.2937,0.2963,0.3134,0.3066,0.3051,0.3014,0.3115,0.3088,0.3105,0.2892,0.289,0.289,0.2889,0,0,0.2265,0.2271,0.2295,0.2309,0.2378,0.2406,0.2502,0.2567,0.265,0.2724,0.2819,0.2987,0.3042,0.31,0.3153,0.3245,0.3358,0.3213,0.3215,0.3183,0.3437,0.3188,0.3181,0.3343,0.3348,0.3352,0.3344,0,0.227,0.2308,0.2323,0.2388,0.2401,0.2464,0.2553,0.2647,0.2724,0.2836,0.2935,0.305,0.3092,0.3158,0.3266,0.3332,0.3416,0.3359,0.3362,0.3362,0.3117,0.32,0.2966,0.2924,0.336,0.3363,0.3365,0,0.2272,0.2299,0.2333,0.24,0.2417,0.248,0.2629,0.2712,0.2874,0.2933,0.3067,0.3125,0.3298,0.3304,0.3474,0.3416,0.3473,0.3508,0.3507,0.3291,0.3148,0.2911,0.2938,0.3393,0.339,0.3388,0.3386,0,0.2261,0.2317,0.2337,0.236,0.2448,0.2506,0.258,0.2754,0.2833,0.3015,0.3063,0.3238,0.3289,0.3422,0.3492,0.3494,0.3615,0.3607,0.3435,0.3413,0.3232,0.3185,0.3773,0.3773,0.3773,0.3773,0.3773,0,0.2242,0.2265,0.2336,0.2346,0.2428,0.2515,0.2637,0.2745,0.2896,0.3007,0.3121,0.3185,0.3326,0.3383,0.3493,0.3467,0.3605,0.3481,0.3422,0.3228,0.3184,0.3622,0.3604,0.3773,0.3773,0.3773,0.3773,0,0.2222,0.2233,0.2284,0.2381,0.241,0.2502,0.2626,0.2713,0.2857,0.2998,0.3042,0.3129,0.3169,0.3255,0.3405,0.339,0.3453,0.3426,0.3134,0.304,0.3207,0.3193,0.3239,0.3231,0.3224,0.3218,0.3214,0,0.2182,0.2219,0.2331,0.235,0.2383,0.2494,0.2554,0.2701,0.2781,0.2959,0.299,0.303,0.3023,0.3029,0.3038,0.3074,0.3263,0.2863,0.2869,0.3229,0.3167,0.3164,0.3159,0.2632,0.2622,0.2615,0.2609,0,0.2152,0.2227,0.2248,0.2327,0.2377,0.245,0.2534,0.2551,0.2738,0.2792,0.2814,0.2806,0.278,0.2613,0.2594,0.2628,0.2828,0.27,0.3203,0.2769,0.2646,0.2587,0.2606,0.2541,0.2548,0.2553,0.2557,0.2559,0.2132,0.2182,0.2233,0.2276,0.2332,0.2358,0.2334,0.2387,0.2416,0.2433,0.2532,0.2423,0.2423,0.2191,0.2158,0.2144,0.2364,0.2322,0.2352,0.2388,0.2286,0.2155,0.1935,0.1938,0.1941,0.1943,0.1945,0,0.2104,0.2134,0.2169,0.2196,0.2174,0.2282,0.2278,0.2199,0.2113,0.2152,0.2103,0.1865,0.1708,0.1762,0.1626,0.1616,0.169,0.1571,0.1678,0.1743,0.1801,0.1677,0.1161,0.1158,0.1156,0.1154,0,0,0.21,0.2064,0.2074,0.199,0.2027,0.1984,0.1936,0.1835,0.1784,0.1608,0.1529,0.1563,0.1653,0.1356,0.1333,0.1225,0.1483,0.1176,0.1803,0.1991,0.2047,0.2224,0.21,0,0,0,0,0]},{"header":{"parameterUnit":"m.s-1","parameterCategory":2,"la1":30.2991,"la2":30.254,"lo1":-89.0895,"lo2":-89.0444,"dy":0.0017,"dx":0.0017,"nx":28,"ny":28,"refTime":"2023-03-29T21:00:00:Z","depth":"2","parameterNumber":3,"parameterNumberName":"V-component_of_CURRENTS"},"data":[0,0,0,0,0,0,0,0,0,0,0,0,0,0,0,0,0,0,0,0,0,0,0,0,0,0,0,0,0,0,0,0,0,0,0,0,0,0,0,0,0,0,0,0,0,0,0,0,0,0,0,0,0,0,0,0,0,0,0.0219,0.0219,0,0.0205,0.0204,0.0204,0.018,0.018,0.018,0.018,0.0064,0.006,0.0057,0,0,0,0,0,0,0,0,0,0,0,0,0,0.0177,0.0178,0.0219,0.0219,0.0219,0.0205,0.0204,0.0203,0.018,0.018,0.018,0.018,0.0065,0.0061,0.0057,0,0,0,0,0,0,0,0,0,0,0,0,0,0.0177,0.0178,0.0218,0.021,0.021,0.0205,0.0204,0.0203,0.018,0.018,0.018,0.018,0.0066,0.0061,0.0056,0.0023,0,0,0.0042,0.004,0,0,0,0,0,0,0,0,0.0177,0.0178,0.0211,0.0211,0.0211,0.02,0.0147,0.014,0.018,0.0185,0.018,0.018,0.0103,0.0096,0.0085,0.0018,0.0013,0.0041,0.0038,0.0036,0.0035,0,0,0,0,0,0,0,0.0177,0.0178,0.0207,0.0212,0.0211,0.0192,0.0192,0.0146,0.0136,0.0184,0.0184,0.0192,0.0102,0.009,0.0082,0.0011,0.0041,0.0037,0.0034,0.0032,-0.0065,-0.0064,0,0,0,0,0,0,0.0194,0.0178,0.0207,0.0207,0.0201,0.0193,0.0193,0.0198,0.0139,0.0133,0.0192,0.0191,0.0098,0.0088,0.0078,0.008,0.0036,0.0032,0.0029,-0.0065,-0.0064,-0.0064,0,0,0,0,0,0,0.0193,0.0196,0.0208,0.0197,0.0198,0.0195,0.02,0.0198,0.0193,0.0148,0.0138,0.0192,0.0098,0.0085,0.0047,0.0073,0.003,0.0025,-0.0065,-0.0065,-0.0064,0.0054,0,0,0,0,0,0,0.0191,0.0196,0.0198,0.0199,0.02,0.0211,0.0201,0.0198,0.0201,0.02,0.0144,0.0133,0.0097,0.0055,0.0043,0.0066,0.0021,-0.0066,-0.0065,-0.0064,0.005,0.0059,0.0066,0,0,0,0,0,0.019,0.0204,0.0198,0.0201,0.0205,0.0212,0.0209,0.0203,0.0201,0.0199,0.0167,0.0136,0.005,0.0051,0.0037,0.0059,-0.0066,-0.0065,-0.0064,0.0046,0.0057,0.0066,0,0,0,0,0,0,0.0186,0.0203,0.0196,0.0213,0.0213,0.021,0.0213,0.0209,0.0182,0.0181,0.0133,0.012,0.01,0.0055,0.0057,0.0031,-0.0011,-0.0013,0.0078,0.0087,0.0095,0.0154,0.0017,0,0,0,0,0,0.0187,0.0202,0.0207,0.0219,0.0222,0.0215,0.0216,0.0215,0.02,0.019,0.0152,0.0113,0.0089,0.007,0.0031,0.0009,-0.0008,0.0014,0.0022,0.003,0.0066,0.0076,0.009,-0.0062,-0.0062,-0.0062,0,0,0.0189,0.0201,0.0208,0.0219,0.0217,0.023,0.0215,0.0226,0.0239,0.0178,0.0169,0.0135,0.0088,0.0075,0.0062,0.0043,0.0054,0.0031,0.0038,0.007,0.0078,0.0093,0.0107,-0.0061,-0.0061,-0.0061,0,0,0.0211,0.021,0.023,0.0233,0.0244,0.0244,0.0251,0.0247,0.0246,0.0233,0.0206,0.0206,0.013,0.0136,0.0123,0.0151,0.0097,0.0113,0.0205,0.0214,0.0227,0.0239,0.0205,0.0214,0.0119,0.0119,0.0119,0,0.0206,0.0239,0.0235,0.0253,0.0269,0.0256,0.0282,0.0277,0.026,0.0281,0.024,0.0223,0.0178,0.0218,0.0226,0.0178,0.0147,0.0176,0.0229,0.0241,0.0251,0.0214,0.0221,0.0125,0.0124,0.0124,0.0123,0,0.0247,0.0266,0.0279,0.0301,0.0311,0.0332,0.0336,0.0342,0.0336,0.0348,0.0375,0.0332,0.0333,0.0314,0.0275,0.0333,0.0273,0.0241,0.0217,0.0275,0.0229,0.0235,0.0133,0.0131,0.0129,0.0128,0,0,0.025,0.03,0.0301,0.0332,0.0344,0.0367,0.039,0.0432,0.0485,0.0461,0.0526,0.0506,0.0504,0.0491,0.0452,0.0466,0.0495,0.0386,0.0384,0.0374,0.0477,0.0373,0.0369,0.0464,0.0467,0.0469,0.0405,0,0.0279,0.0342,0.0353,0.041,0.0446,0.045,0.0482,0.0518,0.054,0.0587,0.0593,0.0613,0.0562,0.0561,0.058,0.0512,0.052,0.0513,0.0404,0.0401,0.0322,0.0377,0.0394,0.0335,0.041,0.0411,0.0412,0,0.031,0.0358,0.0424,0.0498,0.0514,0.0541,0.0625,0.0655,0.0718,0.0732,0.078,0.0758,0.0785,0.0717,0.0688,0.0675,0.0598,0.0547,0.0542,0.0421,0.0311,0.0292,0.0342,0.0421,0.042,0.0419,0.0419,0,0.0341,0.0405,0.0471,0.049,0.0563,0.0602,0.0641,0.0711,0.0766,0.0825,0.0863,0.0888,0.0873,0.0829,0.0703,0.0691,0.0646,0.0609,0.0454,0.0443,0.0429,0.0413,0.0609,0.0609,0.0609,0.0609,0.0609,0,0.0379,0.0431,0.0494,0.0536,0.0628,0.0654,0.076,0.08,0.0874,0.0957,0.0943,0.0983,0.0898,0.0846,0.0749,0.061,0.0675,0.0495,0.044,0.0461,0.0449,0.0504,0.0493,0.0607,0.0607,0.0608,0.0608,0,0.0409,0.0444,0.0532,0.0618,0.0648,0.0717,0.0819,0.0897,0.0947,0.1046,0.1054,0.1044,0.0956,0.0854,0.0742,0.0639,0.0531,0.046,0.0461,0.0409,0.031,0.0305,0.0307,0.0304,0.0301,0.0298,0.0296,0,0.0437,0.0484,0.0591,0.0645,0.0688,0.0784,0.0851,0.0925,0.1008,0.1082,0.1131,0.106,0.1028,0.0816,0.062,0.0433,0.044,0.0305,0.0307,0.0343,0.0289,0.029,0.0289,0.0319,0.0317,0.0316,0.0315,0,0.0506,0.0535,0.0618,0.0707,0.0785,0.0882,0.0982,0.1049,0.1133,0.12,0.1241,0.1209,0.0991,0.079,0.0502,0.0382,0.0341,0.0263,0.0341,0.0376,0.0345,0.0294,0.0296,0.0301,0.0303,0.0304,0.0304,0.0305,0.0557,0.0621,0.0703,0.0789,0.0867,0.0953,0.1024,0.1124,0.1229,0.1291,0.128,0.1215,0.1015,0.0616,0.0414,0.0186,0.0206,0.0146,0.0156,0.0166,0.0163,0.0127,0.0039,0.0039,0.0039,0.0038,0.0038,0,0.0617,0.0684,0.0771,0.0868,0.0927,0.0962,0.109,0.1144,0.124,0.1276,0.1282,0.1061,0.0853,0.0622,0.0276,0.0078,0.0108,0.0015,0.0124,0.0137,0.0149,0.015,0.002,0.0019,0.0019,0.0018,0,0,0.0658,0.0754,0.0792,0.0892,0.0939,0.101,0.1068,0.1147,0.1197,0.1198,0.1155,0.1099,0.0873,0.0622,0.038,0.0198,0.0206,0.0153,0.0186,0.0356,0.037,0.0238,0.0254,0,0,0,0,0]}],[{"header":{"parameterUnit":"m.s-1","parameterCategory":2,"la1":30.2991,"la2":30.254,"lo1":-89.0895,"lo2":-89.0444,"dy":0.0017,"dx":0.0017,"nx":28,"ny":28,"refTime":"2023-03-29T21:00:00:Z","depth":"4","parameterNumber":2,"parameterNumberName":"U-component_of_CURRENTS"},"data":[0,0,0,0,0,0,0,0,0,0,0,0,0,0,0,0,0,0,0,0,0,0,0,0,0,0,0,0,0,0,0,0,0,0,0,0,0,0,0,0,0,0,0,0,0,0,0,0,0,0,0,0,0,0,0,0,0,0,0.0933,0.0933,0,0.0918,0.0918,0.0917,0.092,0.0921,0.0921,0.0922,0.0769,0.0765,0.076,0,0,0,0,0,0,0,0,0,0,0,0,0,0.0982,0.0981,0.0933,0.0933,0.0933,0.0918,0.0918,0.0917,0.092,0.0921,0.0921,0.0922,0.0771,0.0765,0.076,0,0,0,0,0,0,0,0,0,0,0,0,0,0.0961,0.098,0.0933,0.0934,0.0934,0.0918,0.0918,0.0917,0.092,0.0921,0.0922,0.0922,0.0772,0.0766,0.0759,0.0703,0,0,0.0739,0.0736,0,0,0,0,0,0,0,0,0.0962,0.0959,0.0934,0.0934,0.0934,0.0924,0.088,0.084,0.092,0.0923,0.0922,0.0923,0.0809,0.0799,0.0794,0.0696,0.069,0.0738,0.0734,0.0731,0.0729,0,0,0,0,0,0,0,0.0964,0.096,0.0924,0.0934,0.0934,0.0942,0.094,0.0872,0.0858,0.0923,0.0924,0.0925,0.0808,0.08,0.079,0.0687,0.0738,0.0732,0.0728,0.0725,0.066,0.0663,0,0,0,0,0,0,0.0968,0.0961,0.0925,0.0924,0.0953,0.0941,0.0938,0.0924,0.0862,0.0855,0.0925,0.0926,0.0812,0.0798,0.0784,0.0785,0.0731,0.0725,0.0721,0.0658,0.0661,0.0663,0,0,0,0,0,0,0.0969,0.0964,0.0926,0.0945,0.0941,0.0939,0.0924,0.0924,0.0942,0.0865,0.0855,0.0947,0.0812,0.0794,0.0775,0.0776,0.0722,0.0716,0.0655,0.0659,0.0662,0.0739,0,0,0,0,0,0,0.097,0.0964,0.0965,0.0945,0.094,0.0921,0.0924,0.0923,0.0941,0.0943,0.0879,0.0865,0.0811,0.0786,0.0768,0.0765,0.071,0.0652,0.0657,0.0661,0.0734,0.0745,0.0754,0,0,0,0,0,0.0971,0.0969,0.0965,0.0961,0.0938,0.0921,0.0919,0.0919,0.0942,0.0941,0.0934,0.0869,0.0801,0.0782,0.0761,0.0756,0.065,0.0656,0.0661,0.0729,0.0743,0.0754,0,0,0,0,0,0,0.0991,0.0969,0.0964,0.0955,0.0941,0.0923,0.0933,0.0937,0.0932,0.0943,0.0887,0.0871,0.0844,0.081,0.0791,0.076,0.0718,0.0719,0.0777,0.0789,0.0799,0.0808,0.0705,0,0,0,0,0,0.0995,0.0987,0.0965,0.0959,0.096,0.0954,0.0955,0.0951,0.0942,0.0943,0.0909,0.0882,0.0845,0.083,0.0777,0.0761,0.074,0.0753,0.0763,0.0772,0.0771,0.0839,0.0855,0.0681,0.0681,0.0681,0,0,0.0998,0.0989,0.0982,0.0963,0.0961,0.0949,0.0957,0.0961,0.0953,0.0921,0.0918,0.0896,0.0848,0.0828,0.0815,0.0803,0.0795,0.0779,0.0786,0.0779,0.0846,0.0863,0.0878,0.0684,0.0684,0.0683,0,0,0.0996,0.0998,0.0988,0.0982,0.098,0.0968,0.0977,0.097,0.0975,0.0967,0.0951,0.0968,0.0894,0.0888,0.0868,0.0913,0.0836,0.0884,0.0947,0.1014,0.1028,0.1041,0.0963,0.0968,0.0905,0.0905,0.0905,0,0.1009,0.0976,0.0983,0.0978,0.0973,0.0981,0.0967,0.0968,0.0958,0.0977,0.0973,0.0962,0.0927,0.0932,0.0955,0.0931,0.0912,0.0896,0.1027,0.104,0.1052,0.0969,0.0974,0.0909,0.0909,0.0908,0.0908,0,0.0992,0.0971,0.0974,0.0959,0.096,0.095,0.0951,0.0961,0.0978,0.0995,0.1018,0.1009,0.1026,0.101,0.0986,0.105,0.0982,0.1019,0.0992,0.1074,0.098,0.0984,0.0916,0.0914,0.0913,0.0912,0,0,0.1002,0.0963,0.0969,0.0956,0.0946,0.0952,0.0947,0.0956,0.0996,0.101,0.1073,0.1052,0.1108,0.1094,0.1088,0.1139,0.1186,0.1122,0.1123,0.1032,0.1231,0.1198,0.1196,0.1261,0.1264,0.1266,0.1103,0,0.0981,0.0957,0.0943,0.0926,0.0908,0.0917,0.0921,0.095,0.0984,0.1055,0.11,0.1151,0.1122,0.1163,0.1214,0.1196,0.1213,0.1219,0.1173,0.1168,0.1126,0.1209,0.1276,0.1106,0.1106,0.1107,0.1107,0,0.0955,0.0946,0.0916,0.0903,0.0906,0.0911,0.0954,0.0974,0.1066,0.1086,0.1173,0.1235,0.1297,0.1301,0.1302,0.1308,0.1279,0.1253,0.1249,0.1201,0.1149,0.1027,0.1114,0.1113,0.1113,0.1112,0.1112,0,0.0945,0.0923,0.0901,0.0898,0.0894,0.091,0.0943,0.101,0.105,0.1167,0.1229,0.1299,0.1378,0.137,0.1356,0.134,0.1349,0.1328,0.1236,0.1225,0.1262,0.1251,0.1353,0.1354,0.1354,0.1354,0.1355,0,0.0897,0.0888,0.091,0.0902,0.0925,0.095,0.1001,0.1031,0.1123,0.1192,0.1301,0.136,0.1425,0.1463,0.1387,0.132,0.1381,0.1242,0.1223,0.1283,0.1278,0.1258,0.1249,0.1348,0.1349,0.1351,0.1352,0,0.0849,0.0853,0.0842,0.0876,0.0905,0.0949,0.1026,0.107,0.1155,0.1254,0.1311,0.1438,0.1469,0.1479,0.1462,0.1374,0.13,0.1265,0.1253,0.1235,0.108,0.1077,0.1088,0.1087,0.1085,0.1084,0.1083,0,0.0811,0.0795,0.0846,0.0879,0.0896,0.0966,0.1002,0.1068,0.111,0.1269,0.1314,0.1454,0.1508,0.1417,0.1427,0.1281,0.1278,0.1178,0.1189,0.1093,0.1073,0.1072,0.1071,0.1081,0.1081,0.1081,0.108,0,0.0746,0.0771,0.0781,0.0856,0.0905,0.0928,0.1,0.102,0.1109,0.1204,0.1285,0.1337,0.1395,0.1379,0.1334,0.1223,0.1211,0.1163,0.1163,0.1172,0.1085,0.1065,0.1066,0.1076,0.1076,0.1077,0.1077,0,0.0726,0.0717,0.076,0.0823,0.0887,0.0896,0.0921,0.0969,0.1017,0.1178,0.1195,0.1306,0.14,0.1348,0.1278,0.1218,0.1157,0.1053,0.1058,0.1063,0.1143,0.1033,0.1001,0,0,0,0,0,0.0701,0.0691,0.0735,0.0772,0.0837,0.0864,0.0923,0.0944,0.1034,0.1058,0.112,0.1159,0.116,0.1212,0.1133,0.1224,0.114,0.1121,0.1019,0.1049,0.1055,0.1158,0,0,0,0,0,0,0.0675,0.0704,0.0706,0.0742,0.0764,0.0791,0.082,0.0867,0.0877,0.0989,0.1006,0.1069,0.1093,0.1201,0.1115,0.1115,0.1014,0.1163,0.1158,0.1046,0.1051,0.1056,0.1163,0,0,0,0,0]},{"header":{"parameterUnit":"m.s-1","parameterCategory":2,"la1":30.2991,"la2":30.254,"lo1":-89.0895,"lo2":-89.0444,"dy":0.0017,"dx":0.0017,"nx":28,"ny":28,"refTime":"2023-03-29T21:00:00:Z","depth":"4","parameterNumber":3,"parameterNumberName":"V-component_of_CURRENTS"},"data":[0,0,0,0,0,0,0,0,0,0,0,0,0,0,0,0,0,0,0,0,0,0,0,0,0,0,0,0,0,0,0,0,0,0,0,0,0,0,0,0,0,0,0,0,0,0,0,0,0,0,0,0,0,0,0,0,0,0,0.0214,0.0214,0,0.019,0.0189,0.0188,0.0199,0.02,0.0201,0.0202,0.0219,0.0219,0.0218,0,0,0,0,0,0,0,0,0,0,0,0,0,0.0191,0.0192,0.0214,0.0214,0.0214,0.019,0.0189,0.0188,0.0199,0.02,0.0201,0.0203,0.0219,0.0219,0.0218,0,0,0,0,0,0,0,0,0,0,0,0,0,0.0184,0.0192,0.0214,0.0219,0.0219,0.019,0.0189,0.0188,0.0199,0.02,0.0202,0.0203,0.0219,0.0219,0.0218,0.0186,0,0,0.0216,0.0216,0,0,0,0,0,0,0,0,0.0185,0.0185,0.0218,0.0218,0.0219,0.0202,0.0187,0.0191,0.0199,0.0203,0.0202,0.0204,0.0218,0.0218,0.0205,0.0187,0.0188,0.0216,0.0216,0.0215,0.0215,0,0,0,0,0,0,0,0.0185,0.0185,0.02,0.0218,0.0219,0.0196,0.0197,0.0187,0.0201,0.0203,0.0204,0.0207,0.0219,0.0205,0.0205,0.0188,0.0216,0.0216,0.0215,0.0215,0.0147,0.0146,0,0,0,0,0,0,0.0198,0.0186,0.0201,0.02,0.0209,0.0196,0.0197,0.0203,0.02,0.0202,0.0206,0.0207,0.0205,0.0206,0.0206,0.0211,0.0215,0.0215,0.0214,0.0148,0.0147,0.0145,0,0,0,0,0,0,0.0198,0.02,0.0202,0.0195,0.0194,0.0196,0.0202,0.0202,0.0202,0.0203,0.0205,0.0209,0.0207,0.0207,0.02,0.0211,0.0215,0.0214,0.015,0.0148,0.0146,0.0194,0,0,0,0,0,0,0.0197,0.02,0.0206,0.0196,0.0195,0.0195,0.0201,0.0201,0.0203,0.0205,0.0206,0.0208,0.0208,0.02,0.0199,0.021,0.0214,0.0152,0.0149,0.0147,0.0194,0.0194,0.0194,0,0,0,0,0,0.0196,0.0202,0.0206,0.0208,0.0205,0.0195,0.0192,0.0194,0.0202,0.0199,0.0195,0.0208,0.0182,0.0199,0.0197,0.0209,0.0153,0.015,0.0147,0.0195,0.0194,0.0194,0,0,0,0,0,0,0.0191,0.0204,0.0208,0.0217,0.0211,0.0199,0.0198,0.0197,0.0189,0.0196,0.0195,0.0196,0.019,0.0179,0.0197,0.0173,0.0167,0.0164,0.0204,0.0203,0.0203,0.0217,0.0213,0,0,0,0,0,0.0193,0.0207,0.0206,0.0212,0.0212,0.0204,0.0201,0.0203,0.0196,0.0195,0.0195,0.0184,0.017,0.0174,0.0156,0.0149,0.0117,0.0148,0.0148,0.0148,0.0153,0.0094,0.009,0.0135,0.0135,0.0135,0,0,0.019,0.0202,0.0207,0.0212,0.0209,0.0212,0.0205,0.0206,0.0212,0.0197,0.0204,0.0184,0.0163,0.0155,0.0151,0.0155,0.0116,0.0144,0.0145,0.015,0.0091,0.0086,0.0083,0.0132,0.0133,0.0133,0,0,0.0195,0.0204,0.0217,0.0218,0.0224,0.0218,0.0222,0.0215,0.0218,0.0212,0.02,0.0183,0.017,0.0155,0.0146,0.0126,0.0111,0.0122,0.0146,0.0088,0.0085,0.0082,0.0037,0.0029,0.0129,0.0129,0.0129,0,0.0193,0.0216,0.0215,0.0229,0.0236,0.0226,0.0237,0.0231,0.0223,0.0225,0.0222,0.0182,0.0168,0.0154,0.0148,0.0131,0.0097,0.016,0.0091,0.0087,0.0083,0.0037,0.0028,0.0131,0.0131,0.0131,0.0131,0,0.0211,0.0229,0.0236,0.0257,0.0256,0.0265,0.0261,0.026,0.026,0.0256,0.0242,0.0207,0.0191,0.0174,0.0162,0.0128,0.0113,0.0096,0.0104,0.0082,0.0034,0.0024,0.0134,0.0133,0.0133,0.0132,0,0,0.0215,0.0246,0.025,0.0268,0.0278,0.028,0.0286,0.029,0.03,0.0281,0.0291,0.0247,0.0235,0.022,0.0194,0.0144,0.0085,0.0117,0.0113,0.0092,-0.0035,0.0008,0.0001,0.006,0.0058,0.0057,-0.0055,0,0.0235,0.0274,0.0279,0.0307,0.0326,0.0321,0.0329,0.0329,0.0323,0.0327,0.0293,0.0289,0.0253,0.0251,0.0195,0.0108,0.006,0.0117,-0.0029,-0.0033,0.0025,-0.0009,0.0052,-0.0063,-0.0065,-0.0067,-0.0068,0,0.0254,0.0284,0.0323,0.035,0.0356,0.0368,0.0382,0.0396,0.0392,0.0378,0.0363,0.0349,0.0294,0.0264,0.011,0.0149,0.0067,-0.0007,-0.0014,0.0006,-0.0009,-0.0042,-0.0087,-0.0086,-0.0084,-0.0083,-0.0082,0,0.027,0.0309,0.0348,0.036,0.0387,0.0402,0.0419,0.0419,0.0439,0.0429,0.0436,0.0365,0.0348,0.0218,0.0094,0.0095,-0.0081,-0.0101,-0.0141,-0.0139,-0.0163,-0.0158,-0.0209,-0.0209,-0.0209,-0.0209,-0.0208,0,0.0295,0.0325,0.0364,0.0387,0.0434,0.0442,0.0481,0.0477,0.049,0.0516,0.0485,0.0477,0.0335,0.0243,0.0102,-0.0045,-0.0078,-0.0141,-0.0167,-0.0142,-0.0134,-0.017,-0.0164,-0.0213,-0.0212,-0.0211,-0.021,0,0.031,0.0338,0.0386,0.0428,0.0447,0.0488,0.0536,0.0556,0.0563,0.0597,0.0606,0.0554,0.0427,0.0284,0.0073,-0.0013,-0.0176,-0.0215,-0.0166,-0.0187,-0.02,-0.0191,-0.0283,-0.0282,-0.0282,-0.0281,-0.0281,0,0.0321,0.0351,0.0417,0.0456,0.0483,0.0541,0.0573,0.059,0.0612,0.0636,0.0649,0.0586,0.0528,0.0268,0.01,-0.0148,-0.0173,-0.0244,-0.0233,-0.0193,-0.0209,-0.0201,-0.0192,-0.028,-0.028,-0.028,-0.028,0,0.0342,0.037,0.0412,0.049,0.0539,0.0588,0.0638,0.0662,0.0688,0.0699,0.0683,0.0601,0.0477,0.0283,0.0116,-0.007,-0.0199,-0.024,-0.0243,-0.0233,-0.0191,-0.0206,-0.0198,-0.0278,-0.0279,-0.0279,-0.0279,0,0.0354,0.0389,0.0445,0.0517,0.0575,0.0618,0.0647,0.0671,0.0698,0.0726,0.0711,0.06,0.0533,0.0323,0.0147,-0.0004,-0.0047,-0.0096,-0.0107,-0.0111,-0.0018,0.0064,0.0029,0,0,0,0,0,0.0362,0.0405,0.0464,0.0533,0.0586,0.0618,0.0676,0.0696,0.0732,0.0726,0.0724,0.061,0.0416,0.033,0.0182,0.0137,-0.0087,-0.0039,-0.0153,-0.0269,-0.0271,-0.0186,0,0,0,0,0,0,0.0373,0.0428,0.0461,0.0528,0.0571,0.0621,0.0659,0.0686,0.0681,0.0706,0.0594,0.0576,0.0366,0.0488,0.0176,0.0135,0.0047,-0.0128,-0.0131,-0.0268,-0.027,-0.0271,-0.0184,0,0,0,0,0]}]]